EZY4MV EDDL-EGKK

Flight info

Callsign EZY4MV
Flight time 1h 0m
Altitude 32000
Route MODRU7Z/05R MODRU Z717 MAS UM617 SOGRI DCT DENUT L610 TEBRA
Aircraft A319/M-SDE3FGHIRWY/LB1

Departure

Time 2026-05-07 17:22
Airport Düsseldorf Airport (EDDL)

Arrival

Time 2026-05-07 18:23
Airport London Gatwick Airport (EGKK)
Time Latitude Longitude Altitude Speed Heading
2026-05-07 17:09 51.27942 6.76185 153 ft 0 kts 90°
2026-05-07 17:15 51.27942 6.76167 153 ft 2 kts 90°
2026-05-07 17:15 51.27943 6.76143 153 ft 2 kts 91°
2026-05-07 17:15 51.27943 6.76119 153 ft 2 kts 90°
2026-05-07 17:16 51.27943 6.76103 153 ft 1 kts 91°
2026-05-07 17:16 51.27940 6.76080 153 ft 2 kts 62°
2026-05-07 17:16 51.27931 6.76061 153 ft 2 kts 39°
2026-05-07 17:16 51.27918 6.76049 153 ft 2 kts 14°
2026-05-07 17:17 51.27909 6.76047 153 ft 1 kts
2026-05-07 17:17 51.27905 6.76047 153 ft 0 kts
2026-05-07 17:19 51.27940 6.76049 153 ft 7 kts
2026-05-07 17:19 51.27998 6.76048 153 ft 9 kts 359°
2026-05-07 17:19 51.28065 6.76048 153 ft 10 kts 358°
2026-05-07 17:20 51.28102 6.75966 153 ft 11 kts 246°
2026-05-07 17:20 51.28053 6.75858 153 ft 12 kts 232°
2026-05-07 17:20 51.27997 6.75743 153 ft 13 kts 233°
2026-05-07 17:20 51.27937 6.75617 153 ft 14 kts 233°
2026-05-07 17:21 51.27874 6.75487 153 ft 15 kts 233°
2026-05-07 17:21 51.27857 6.75340 153 ft 16 kts 316°
2026-05-07 17:21 51.27960 6.75263 153 ft 16 kts 360°
2026-05-07 17:21 51.28106 6.75505 153 ft 64 kts 52°
2026-05-07 17:22 51.28524 6.76384 154 ft 133 kts 52°
2026-05-07 17:22 51.29187 6.77762 339 ft 171 kts 51°
2026-05-07 17:22 51.29899 6.79224 1204 ft 164 kts 51°
2026-05-07 17:22 51.30558 6.80613 2082 ft 159 kts 52°
2026-05-07 17:23 51.31240 6.82051 2642 ft 174 kts 52°
2026-05-07 17:23 51.32010 6.83681 3144 ft 195 kts 52°
2026-05-07 17:23 51.32864 6.85497 3708 ft 214 kts 52°
2026-05-07 17:23 51.33777 6.87473 4322 ft 233 kts 53°
2026-05-07 17:24 51.34820 6.89557 4927 ft 250 kts 40°
2026-05-07 17:24 51.36385 6.90836 5632 ft 262 kts 12°
2026-05-07 17:24 51.38182 6.91327 6597 ft 265 kts
2026-05-07 17:24 51.39993 6.91782 7525 ft 270 kts
2026-05-07 17:25 51.41864 6.92263 8408 ft 275 kts
2026-05-07 17:25 51.43745 6.92755 9259 ft 281 kts
2026-05-07 17:25 51.45677 6.93266 10094 ft 286 kts
2026-05-07 17:25 51.47692 6.93309 10755 ft 297 kts 347°
2026-05-07 17:26 51.49577 6.91936 11223 ft 312 kts 321°
2026-05-07 17:26 51.50982 6.89206 11705 ft 327 kts 295°
2026-05-07 17:26 51.51792 6.85810 12650 ft 325 kts 290°
2026-05-07 17:26 51.52572 6.82420 13411 ft 331 kts 290°
2026-05-07 17:27 51.53404 6.78890 13961 ft 341 kts 290°
2026-05-07 17:27 51.54245 6.75357 14668 ft 346 kts 290°
2026-05-07 17:27 51.55101 6.71755 15417 ft 349 kts 290°
2026-05-07 17:27 51.55611 6.67921 16111 ft 352 kts 270°
2026-05-07 17:28 51.55219 6.64105 16813 ft 355 kts 250°
2026-05-07 17:28 51.54145 6.60505 17485 ft 358 kts 243°
2026-05-07 17:28 51.52977 6.56955 18147 ft 362 kts 243°
2026-05-07 17:28 51.51811 6.53413 18764 ft 366 kts 243°
2026-05-07 17:29 51.50620 6.49765 19378 ft 369 kts 243°
2026-05-07 17:29 51.49443 6.46142 20021 ft 371 kts 243°
2026-05-07 17:29 51.48243 6.42441 20602 ft 374 kts 243°
2026-05-07 17:29 51.47009 6.38746 20956 ft 376 kts 239°
2026-05-07 17:30 51.45331 6.35556 21024 ft 378 kts 222°
2026-05-07 17:30 51.43147 6.33286 21035 ft 379 kts 205°
2026-05-07 17:30 51.40652 6.31719 21193 ft 384 kts 201°
2026-05-07 17:30 51.38047 6.30215 21801 ft 387 kts 201°
2026-05-07 17:31 51.35468 6.28724 22450 ft 388 kts 201°
2026-05-07 17:31 51.32840 6.27190 23042 ft 391 kts 201°
2026-05-07 17:31 51.30224 6.25658 23575 ft 394 kts 201°
2026-05-07 17:31 51.27622 6.24134 23955 ft 396 kts 201°
2026-05-07 17:32 51.25045 6.22625 24021 ft 396 kts 201°
2026-05-07 17:32 51.22448 6.21105 24026 ft 395 kts 201°
2026-05-07 17:32 51.19825 6.19570 24031 ft 395 kts 201°
2026-05-07 17:32 51.17192 6.18011 24146 ft 400 kts 204°
2026-05-07 17:33 51.14792 6.15588 24629 ft 400 kts 226°
2026-05-07 17:33 51.13191 6.11868 25255 ft 398 kts 246°
2026-05-07 17:33 51.12450 6.07593 25741 ft 400 kts 263°
2026-05-07 17:33 51.12546 6.03139 26177 ft 404 kts 276°
2026-05-07 17:34 51.12948 5.98647 26625 ft 407 kts 277°
2026-05-07 17:34 51.13354 5.94163 27049 ft 410 kts 277°
2026-05-07 17:34 51.13745 5.89717 27475 ft 412 kts 277°
2026-05-07 17:34 51.14135 5.85149 27897 ft 415 kts 277°
2026-05-07 17:35 51.14513 5.80636 28285 ft 417 kts 277°
2026-05-07 17:35 51.14890 5.76069 28660 ft 420 kts 277°
2026-05-07 17:35 51.15265 5.71462 29036 ft 422 kts 277°
2026-05-07 17:35 51.15640 5.66809 29510 ft 422 kts 276°
2026-05-07 17:36 51.16010 5.62182 30059 ft 420 kts 276°
2026-05-07 17:36 51.16371 5.57645 30564 ft 419 kts 276°
2026-05-07 17:36 51.16736 5.53026 30984 ft 420 kts 276°
2026-05-07 17:36 51.17100 5.48389 31316 ft 421 kts 276°
2026-05-07 17:37 51.17459 5.43789 31643 ft 423 kts 276°
2026-05-07 17:37 51.17817 5.39178 31952 ft 424 kts 277°
2026-05-07 17:37 51.18538 5.29824 32034 ft 426 kts 276°
2026-05-07 17:38 51.19249 5.20476 32039 ft 426 kts 276°
2026-05-07 17:38 51.19953 5.11130 32041 ft 426 kts 276°
2026-05-07 17:39 51.20653 5.01748 32040 ft 426 kts 276°
2026-05-07 17:39 51.21323 4.92683 32042 ft 426 kts 276°
2026-05-07 17:40 51.22008 4.83302 32044 ft 426 kts 276°
2026-05-07 17:40 51.22683 4.73943 32046 ft 425 kts 276°
2026-05-07 17:41 51.23349 4.64626 32049 ft 425 kts 276°
2026-05-07 17:41 51.24005 4.55326 32049 ft 425 kts 276°
2026-05-07 17:42 51.24659 4.45940 32049 ft 425 kts 276°
2026-05-07 17:42 51.25304 4.36589 32051 ft 425 kts 276°
2026-05-07 17:43 51.25940 4.27241 32051 ft 425 kts 275°
2026-05-07 17:43 51.26568 4.17883 32049 ft 425 kts 275°
2026-05-07 17:44 51.27182 4.08622 32048 ft 425 kts 275°
2026-05-07 17:44 51.27805 3.99153 32045 ft 425 kts 275°
2026-05-07 17:45 51.28409 3.89858 32045 ft 424 kts 275°
2026-05-07 17:45 51.29010 3.80489 32045 ft 424 kts 275°
2026-05-07 17:46 51.29601 3.71162 32044 ft 424 kts 275°
2026-05-07 17:46 51.30183 3.61827 32045 ft 424 kts 275°
2026-05-07 17:47 51.30758 3.52503 31995 ft 420 kts 275°
2026-05-07 17:47 51.31041 3.47883 31537 ft 418 kts 275°
2026-05-07 17:47 51.31320 3.43272 30683 ft 422 kts 275°
2026-05-07 17:48 51.31601 3.38587 29794 ft 424 kts 275°
2026-05-07 17:48 51.31879 3.33939 29260 ft 419 kts 274°
2026-05-07 17:48 51.32151 3.29347 29058 ft 417 kts 274°
2026-05-07 17:48 51.32423 3.24746 29055 ft 418 kts 274°
2026-05-07 17:49 51.32964 3.15489 29054 ft 418 kts 274°
2026-05-07 17:49 51.33496 3.06281 29052 ft 418 kts 274°
2026-05-07 17:50 51.34022 2.97041 29056 ft 418 kts 274°
2026-05-07 17:50 51.34541 2.87803 29054 ft 419 kts 274°
2026-05-07 17:51 51.35055 2.78539 29051 ft 419 kts 275°
2026-05-07 17:51 51.35920 2.69444 28720 ft 407 kts 280°
2026-05-07 17:52 51.36459 2.65047 27731 ft 400 kts 280°
2026-05-07 17:52 51.36988 2.60792 27243 ft 394 kts 280°
2026-05-07 17:52 51.37519 2.56497 26787 ft 389 kts 280°
2026-05-07 17:52 51.38036 2.52298 26337 ft 385 kts 280°
2026-05-07 17:53 51.38544 2.48153 25893 ft 382 kts 280°
2026-05-07 17:53 51.39052 2.43977 25444 ft 379 kts 280°
2026-05-07 17:53 51.39550 2.39877 25006 ft 376 kts 280°
2026-05-07 17:53 51.40044 2.35799 24558 ft 373 kts 280°
2026-05-07 17:54 51.40532 2.31733 24116 ft 370 kts 279°
2026-05-07 17:54 51.41015 2.27697 23678 ft 367 kts 279°
2026-05-07 17:54 51.41495 2.23714 23241 ft 365 kts 279°
2026-05-07 17:54 51.41978 2.19765 22804 ft 362 kts 280°
2026-05-07 17:55 51.42462 2.15817 22372 ft 360 kts 280°
2026-05-07 17:55 51.42942 2.11886 21933 ft 358 kts 280°
2026-05-07 17:55 51.43413 2.08013 21506 ft 356 kts 280°
2026-05-07 17:55 51.43884 2.04117 21074 ft 354 kts 280°
2026-05-07 17:56 51.44346 2.00295 20651 ft 353 kts 280°
2026-05-07 17:56 51.44809 1.96410 20214 ft 351 kts 279°
2026-05-07 17:56 51.45256 1.92609 19788 ft 350 kts 279°
2026-05-07 17:56 51.45709 1.88752 19358 ft 349 kts 279°
2026-05-07 17:57 51.46133 1.85137 18961 ft 347 kts 279°
2026-05-07 17:57 51.46424 1.82630 18685 ft 346 kts 279°
2026-05-07 17:57 51.46987 1.77774 18154 ft 345 kts 279°
2026-05-07 17:57 51.47422 1.73989 17733 ft 343 kts 279°
2026-05-07 17:58 51.47851 1.70257 17318 ft 343 kts 279°
2026-05-07 17:58 51.48277 1.66542 16902 ft 342 kts 279°
2026-05-07 17:58 51.48539 1.62744 16471 ft 340 kts 269°
2026-05-07 17:58 51.48294 1.59033 16053 ft 338 kts 257°
2026-05-07 17:59 51.47599 1.55422 15634 ft 337 kts 250°
2026-05-07 17:59 51.46790 1.51932 15220 ft 336 kts 249°
2026-05-07 17:59 51.45971 1.48466 14809 ft 335 kts 249°
2026-05-07 17:59 51.45150 1.44958 14395 ft 334 kts 249°
2026-05-07 18:00 51.44342 1.41493 14097 ft 340 kts 248°
2026-05-07 18:00 51.43221 1.38128 14045 ft 342 kts 234°
2026-05-07 18:00 51.41626 1.35372 14041 ft 342 kts 220°
2026-05-07 18:00 51.39740 1.33045 14042 ft 342 kts 216°
2026-05-07 18:01 51.37808 1.30776 14039 ft 342 kts 216°
2026-05-07 18:01 51.35889 1.28533 14038 ft 341 kts 216°
2026-05-07 18:01 51.33975 1.26290 14036 ft 341 kts 216°
2026-05-07 18:01 51.32075 1.24058 14035 ft 341 kts 216°
2026-05-07 18:02 51.28263 1.19572 14031 ft 341 kts 216°
2026-05-07 18:02 51.26376 1.17352 14033 ft 341 kts 216°
2026-05-07 18:02 51.24571 1.14898 14015 ft 341 kts 230°
2026-05-07 18:03 51.23312 1.11668 14035 ft 342 kts 242°
2026-05-07 18:03 51.22264 1.08303 14036 ft 342 kts 243°
2026-05-07 18:03 51.21213 1.04888 14040 ft 341 kts 243°
2026-05-07 18:03 51.20151 1.01530 14044 ft 341 kts 242°
2026-05-07 18:04 51.19064 0.98177 14038 ft 341 kts 242°
2026-05-07 18:04 51.17971 0.94864 14042 ft 341 kts 241°
2026-05-07 18:04 51.16853 0.91507 14050 ft 341 kts 241°
2026-05-07 18:04 51.15734 0.88174 14051 ft 341 kts 241°
2026-05-07 18:05 51.14623 0.84881 14043 ft 341 kts 241°
2026-05-07 18:05 51.13499 0.81556 14043 ft 340 kts 241°
2026-05-07 18:05 51.12385 0.78269 14051 ft 340 kts 241°
2026-05-07 18:05 51.11254 0.74940 14045 ft 340 kts 241°
2026-05-07 18:06 51.10340 0.71510 13989 ft 339 kts 255°
2026-05-07 18:06 51.09892 0.67875 13650 ft 336 kts 260°
2026-05-07 18:06 51.09564 0.64243 13181 ft 326 kts 261°
2026-05-07 18:06 51.09275 0.60796 12813 ft 307 kts 261°
2026-05-07 18:07 51.09020 0.57666 12378 ft 293 kts 262°
2026-05-07 18:07 51.08761 0.54474 11668 ft 289 kts 262°
2026-05-07 18:07 51.08509 0.51365 10902 ft 286 kts 262°
2026-05-07 18:07 51.08254 0.48250 10139 ft 284 kts 262°
2026-05-07 18:08 51.07999 0.45180 9389 ft 282 kts 262°
2026-05-07 18:08 51.07742 0.42132 8697 ft 282 kts 262°
2026-05-07 18:08 51.07474 0.39022 8252 ft 281 kts 262°
2026-05-07 18:08 51.07210 0.35995 8045 ft 278 kts 262°
2026-05-07 18:09 51.06943 0.32947 8031 ft 279 kts 261°
2026-05-07 18:09 51.06678 0.29901 8026 ft 279 kts 261°
2026-05-07 18:09 51.06410 0.26847 8026 ft 279 kts 261°
2026-05-07 18:09 51.06145 0.23802 8028 ft 279 kts 261°
2026-05-07 18:10 51.05881 0.20769 8035 ft 279 kts 261°
2026-05-07 18:10 51.05618 0.17730 8026 ft 279 kts 261°
2026-05-07 18:10 51.05356 0.14682 8024 ft 279 kts 261°
2026-05-07 18:10 51.05096 0.11640 8026 ft 279 kts 261°
2026-05-07 18:11 51.04833 0.08549 8029 ft 280 kts 261°
2026-05-07 18:11 51.04661 0.06517 8031 ft 280 kts 261°
2026-05-07 18:11 51.04322 0.02466 8015 ft 278 kts 261°
2026-05-07 18:11 51.04066 -0.00572 7692 ft 276 kts 261°
2026-05-07 18:12 51.03809 -0.03573 7255 ft 278 kts 261°
2026-05-07 18:12 51.03548 -0.06576 7003 ft 276 kts 261°
2026-05-07 18:12 51.03280 -0.09579 6651 ft 275 kts 261°
2026-05-07 18:12 51.03004 -0.12623 6230 ft 276 kts 261°
2026-05-07 18:13 51.02729 -0.15630 5857 ft 276 kts 261°
2026-05-07 18:13 51.02457 -0.18600 5509 ft 274 kts 261°
2026-05-07 18:13 51.02185 -0.21588 5149 ft 273 kts 261°
2026-05-07 18:13 51.01912 -0.24576 4794 ft 271 kts 261°
2026-05-07 18:14 51.01647 -0.27501 4448 ft 270 kts 261°
2026-05-07 18:14 51.01379 -0.30457 4084 ft 269 kts 261°
2026-05-07 18:14 51.01116 -0.33367 3728 ft 268 kts 261°
2026-05-07 18:14 51.00854 -0.36277 3426 ft 265 kts 261°
2026-05-07 18:15 51.00600 -0.39102 3266 ft 256 kts 261°
2026-05-07 18:15 51.00537 -0.41900 3084 ft 249 kts 282°
2026-05-07 18:15 51.01142 -0.44368 2986 ft 238 kts 298°
2026-05-07 18:15 51.01946 -0.46652 2982 ft 236 kts 301°
2026-05-07 18:16 51.02778 -0.48890 2978 ft 236 kts 301°
2026-05-07 18:16 51.03627 -0.51112 2975 ft 236 kts 306°
2026-05-07 18:16 51.04836 -0.52823 2968 ft 233 kts 333°
2026-05-07 18:16 51.06315 -0.53881 2973 ft 234 kts 340°
2026-05-07 18:17 51.07896 -0.54388 2958 ft 230 kts
2026-05-07 18:17 51.09288 -0.53621 2958 ft 220 kts 39°
2026-05-07 18:17 51.10214 -0.51757 2977 ft 214 kts 69°
2026-05-07 18:17 51.10665 -0.49497 2986 ft 214 kts 77°
2026-05-07 18:18 51.11003 -0.47210 2973 ft 208 kts 79°
2026-05-07 18:18 51.11290 -0.45057 2955 ft 188 kts 80°
2026-05-07 18:18 51.11540 -0.43152 2951 ft 166 kts 80°
2026-05-07 18:18 51.11774 -0.41379 2847 ft 162 kts 80°
2026-05-07 18:19 51.12007 -0.39629 2619 ft 161 kts 80°
2026-05-07 18:19 51.12239 -0.37895 2399 ft 160 kts 79°
2026-05-07 18:19 51.12470 -0.36181 2181 ft 160 kts 79°
2026-05-07 18:19 51.12705 -0.34449 1962 ft 159 kts 79°
2026-05-07 18:20 51.12936 -0.32751 1749 ft 158 kts 80°
2026-05-07 18:20 51.13162 -0.31096 1520 ft 146 kts 80°
2026-05-07 18:20 51.13370 -0.29585 1303 ft 132 kts 80°
2026-05-07 18:20 51.13557 -0.28212 1117 ft 124 kts 81°
2026-05-07 18:21 51.13739 -0.26872 969 ft 125 kts 80°
2026-05-07 18:21 51.13923 -0.25521 806 ft 125 kts 80°
2026-05-07 18:21 51.14104 -0.24164 666 ft 126 kts 79°
2026-05-07 18:21 51.14300 -0.22801 491 ft 126 kts 78°
2026-05-07 18:22 51.14488 -0.21436 336 ft 126 kts 80°
2026-05-07 18:22 51.14608 -0.20539 225 ft 126 kts 79°
2026-05-07 18:22 51.14816 -0.19018 199 ft 73 kts 78°
2026-05-07 18:22 51.14903 -0.18378 199 ft 57 kts 77°
2026-05-07 18:23 51.14990 -0.17948 199 ft 26 kts 61°
2026-05-07 18:23 51.15057 -0.17797 199 ft 12 kts 53°
2026-05-07 18:23 51.15115 -0.17757 199 ft 9 kts 353°
2026-05-07 18:23 51.15164 -0.17766 199 ft 2 kts 353°
2026-05-07 18:24 51.15169 -0.17766 199 ft 0 kts 353°
2026-05-07 18:26 51.15206 -0.17774 199 ft 10 kts 352°
2026-05-07 18:26 51.15242 -0.17864 199 ft 12 kts 259°
2026-05-07 18:26 51.15224 -0.17993 199 ft 10 kts 257°
2026-05-07 18:26 51.15243 -0.18096 199 ft 11 kts 337°
2026-05-07 18:27 51.15326 -0.18122 199 ft 12 kts 351°
2026-05-07 18:27 51.15412 -0.18154 199 ft 10 kts 347°
2026-05-07 18:27 51.15460 -0.18085 199 ft 11 kts 77°
2026-05-07 18:27 51.15478 -0.17952 199 ft 12 kts 78°
2026-05-07 18:28 51.15494 -0.17828 199 ft 6 kts 78°
2026-05-07 18:28 51.15523 -0.17801 199 ft 4 kts 346°
2026-05-07 18:28 51.15551 -0.17811 199 ft 3 kts 347°
2026-05-07 18:28 51.15562 -0.17816 199 ft 1 kts 347°
2026-05-07 18:29 51.15564 -0.17816 199 ft 0 kts 347°